Regional Weather Roundup
Issued by NWS Cleveland, OH

Home | Current Version | Previous Version | Graphics & Text | Print | Product List | Glossary On
Versions: 1 2 3 4 5 6 7 8 9 10 11 12 13 14 15 16 17 18 19 20 21 22 23 24 25 26 27 28 29 30 31 32 33 34 35 36 37 38 39 40 41 42 43 44 45 46 47 48 49 50
000
ASUS41 KCLE 172310
RWRCLE
OHIO REGIONAL WEATHER ROUNDUP
NATIONAL WEATHER SERVICE WILMINGTON, OH
700 PM EDT FRI APR 17 2015

NOTE: "FAIR" INDICATES FEW OR NO CLOUDS BELOW 12,000 FEET WITH NO
SIGNIFICANT WEATHER AND/OR OBSTRUCTIONS TO VISIBILITY.

OHZ001>008-015>018-024>027-034-035-043-044-180000-
   NORTHWEST OHIO

CITY           SKY/WX    TMP DP  RH WIND       PRES   REMARKS
DEFIANCE       SUNNY     76  41  28 NW7       30.00
FINDLAY        SUNNY     73  34  23 CALM      30.01S
TOLEDO EXPRESS MOSUNNY   75  37  25 W7        29.99S
TOLEDO EXEC    SUNNY     74  38  27 SW8       30.00S
LIMA           MOSUNNY   73  38  27 CALM      30.03S
$$

OHZ009>014-019>023-028>033-038-089-180000-
   NORTHEAST OHIO

CITY           SKY/WX    TMP DP  RH WIND       PRES   REMARKS
CLE-HOPKINS    SUNNY     63  49  60 N9        30.05R
CLE-LAKEFRONT  SUNNY     56  48  74 NE3       30.03S
CUY CO. ARPT   SUNNY     63  50  63 NW8       30.04S
LORAIN-ELYRIA  SUNNY     65  50  58 N12       30.04R
ASHTABULA      SUNNY     63  47  55 NW7       30.04R
AKRON-CANTON   MOSUNNY   71  46  40 VRB3      30.03R
WOOSTER        MOSUNNY   69  45  41 CALM      30.03S
MANSFIELD      MOSUNNY   69  44  40 NW6       30.04S
YOUNGSTOWN     MOSUNNY   68  46  45 NW5       30.02S
$$

OHZ042-051>053-060>062-070>072-077>081-180000-
  SOUTHWEST OHIO

CITY           SKY/WX    TMP DP  RH WIND       PRES   REMARKS
CINC-COVINGTON PTSUNNY   74  47  38 NW3       30.02S
CINC-LUNKEN    PTSUNNY   74  47  38 CALM      30.01S
HAMILTON       PTSUNNY   75  43  31 CALM      30.02F
DAYTON         PTSUNNY   73  39  29 N5        30.03F
WRIGHT-PAT AFB MOSUNNY   73  37  27 NW5       30.02S
DAYTON GENERAL MOSUNNY   73  41  31 VRB7      30.01F
WILMINGTON     MOSUNNY   73  39  29 CALM      30.02F
$$

OHZ036-037-039>041-045>050-054>059-063>069-073>076-082>088-180000-
  CENTRAL AND SOUTHEAST OHIO

CITY           SKY/WX    TMP DP  RH WIND       PRES   REMARKS
COLUMBUS       PTSUNNY   71  41  33 N12       30.01S
OSU AIRPORT    PTSUNNY   70  41  34 NW8       30.02R
BOLTON FIELD   SUNNY     72  45  37 NW6       30.02S
RICKENBACK AFB MOSUNNY   72  45  37 NW7       30.01S
NEWARK         MOSUNNY   70  46  42 NW8       30.00S
MARION         MOSUNNY   72  41  32 N3        30.03S
LANCASTER      MOSUNNY   73  45  36 CALM      30.02S
ZANESVILLE     MOSUNNY   71  44  37 NW6       30.00S
NEW PHILLY     MOSUNNY   72  47  40 NW6       30.02S
$$



USA.gov is the U.S. government's official web portal to all federal, state and local government web resources and services.